Amsterdam, Netherlands

1:01 PM CET on January 23, 2017 (GMT +0100)
Schiphol

Weather History for EHAM - February, 2013

Change the Weather History Date:

Wednesday, February 13, 2013

  Actual Average Record
Temperature  
Mean Temperature 30 °F -  
Max Temperature 35 °F 45 °F 55 °F (1998)
Min Temperature 25 °F 35 °F 19 °F (1999)
Degree Days  
Heating Degree Days 35    
Moisture  
Dew Point 25 °F    
Average Humidity 77    
Maximum Humidity 93    
Minimum Humidity 52    
Precipitation  
Precipitation 0.00 in - - ()
Sea Level Pressure  
Sea Level Pressure 30.23 in    
Wind  
Wind Speed 6 mph ()    
Max Wind Speed 13 mph    
Max Gust Speed -    
Visibility 7.1 miles    
Events      
Averages and records for this station are not official NWS values.
T = Trace of Precipitation, MM = Missing Value Source: Averaged Metar Reports

Daily Weather History Graph

Daily Weather History Graph

Search for Another Location

Airport or City:

Trip Planner

Search our weather history database for the weather conditions in past years. The results will help you decide how hot, cold, wet, or windy it might be!

Date:

Astronomy

Feb. 13, 2013 Rise Set
Actual Time 8:00 AM CET 5:50 PM CET
Civil Twilight 7:24 AM CET 6:26 PM CET
Nautical Twilight 6:45 AM CET 7:06 PM CET
Astronomical Twilight 6:05 AM CET 7:45 PM CET
Moon 8:48 AM CET (2/13) 10:14 PM CET (2/13)
Length of Visible Light 11h 01m
Length of Day
9h 50m
Waxing Crescent, 12% of the Moon is Illuminated
Feb 13
Waxing Crescent
Feb 17
First Quarter
Feb 25
Full
Mar 4
Last Quarter
Mar 11
New

Hourly Weather History & Observations

Time (CET) Temp. Windchill Dew Point Humidity Pressure Visibility Wind Dir Wind Speed Gust Speed Precip Events Conditions
12:25 AM 32.0 °F 24.8 °F 26.6 °F 80% 30.12 in 6.2 mi NE 8.1 mph - N/A   Scattered Clouds
12:55 AM 30.2 °F 23.4 °F 26.6 °F 86% 30.15 in 6.2 mi ENE 6.9 mph - N/A   Scattered Clouds
1:00 AM 30 °F - 25 °F 76% 30.16 in 16 mi ENE 8.9 mph - -   Partly Cloudy
1:25 AM 28.4 °F 20.4 °F 24.8 °F 86% 30.15 in 6.2 mi ENE 8.1 mph - N/A   Partly Cloudy
1:55 AM 30.2 °F 21.9 °F 24.8 °F 80% 30.15 in 6.2 mi ENE 9.2 mph - N/A   Partly Cloudy
2:25 AM 28.4 °F 21.2 °F 24.8 °F 86% 30.15 in 6.2 mi East 6.9 mph - N/A   Partly Cloudy
2:55 AM 28.4 °F 21.2 °F 23.0 °F 80% 30.15 in 6.2 mi ENE 6.9 mph - N/A   Partly Cloudy
3:25 AM 28.4 °F 22.2 °F 23.0 °F 80% 30.15 in 6.2 mi ENE 5.8 mph - N/A   Scattered Clouds
3:55 AM 28.4 °F 23.3 °F 24.8 °F 86% 30.18 in 6.2 mi ENE 4.6 mph - N/A   Mostly Cloudy
4:00 AM 29 °F - 25 °F 77% 30.19 in 17 mi ENE 4.5 mph - -   Overcast
4:25 AM 28.4 °F 22.2 °F 24.8 °F 86% 30.18 in 6.2 mi ENE 5.8 mph - N/A   Mostly Cloudy
4:55 AM 30.2 °F 25.4 °F 26.6 °F 86% 30.18 in 6.2 mi ENE 4.6 mph - N/A   Mostly Cloudy
5:25 AM 30.2 °F - 26.6 °F 86% 30.18 in 6.2 mi Variable 2.3 mph - N/A   Mostly Cloudy
5:55 AM 30.2 °F - 24.8 °F 80% 30.18 in 6.2 mi Variable 2.3 mph - N/A   Scattered Clouds
6:25 AM 28.4 °F 24.6 °F 24.8 °F 86% 30.21 in 6.2 mi ESE 3.5 mph - N/A   Partly Cloudy
6:55 AM 26.6 °F - 24.8 °F 93% 30.21 in 6.2 mi ESE 1.2 mph - N/A   Partly Cloudy
7:00 AM 26 °F - 24 °F 86% 30.22 in 10 mi East 2.2 mph - -   Partly Cloudy
7:25 AM 26.6 °F - 24.8 °F 93% 30.21 in 6.2 mi East 2.3 mph - N/A   Mostly Cloudy
7:55 AM 28.4 °F - 24.8 °F 86% 30.21 in 6.2 mi ENE 2.3 mph - N/A   Mostly Cloudy
8:25 AM 28.4 °F 24.6 °F 24.8 °F 86% 30.24 in 6.2 mi ESE 3.5 mph - N/A   Mostly Cloudy
8:55 AM 28.4 °F - 24.8 °F 86% 30.24 in 6.2 mi Variable 2.3 mph - N/A   Mostly Cloudy
9:25 AM 28.4 °F 24.6 °F 23.0 °F 80% 30.24 in 6.2 mi East 3.5 mph - N/A   Scattered Clouds
9:55 AM 30.2 °F 25.4 °F 24.8 °F 80% 30.24 in 6.2 mi ESE 4.6 mph - N/A   Scattered Clouds
10:00 AM 31 °F - 25 °F 69% 30.27 in 19 mi SE 4.5 mph - -   Mostly Cloudy
10:25 AM 32.0 °F 26.4 °F 23.0 °F 69% 30.24 in 6.2 mi SE 5.8 mph - N/A   Mostly Cloudy
10:55 AM 33.8 °F 27.7 °F 24.8 °F 70% 30.27 in 6.2 mi ESE 6.9 mph - N/A   Mostly Cloudy
11:25 AM 32.0 °F 25.6 °F 24.8 °F 75% 30.27 in 6.2 mi SSE 6.9 mph - N/A   Scattered Clouds
11:55 AM 33.8 °F 27.7 °F 23.0 °F 65% 30.27 in 6.2 mi South 6.9 mph - N/A   Scattered Clouds
12:25 PM 33.8 °F 27.7 °F 23.0 °F 65% 30.27 in 6.2 mi SSE 6.9 mph - N/A   Partly Cloudy
12:55 PM 33.8 °F 27.7 °F 23.0 °F 65% 30.27 in 6.2 mi SSE 6.9 mph - N/A   Partly Cloudy
1:00 PM 35 °F - 24 °F 52% 30.28 in 17 mi SSE 6.7 mph - -   Partly Cloudy
1:25 PM 33.8 °F 27.0 °F 23.0 °F 65% 30.27 in 6.2 mi South 8.1 mph - N/A   Partly Cloudy
1:55 PM 33.8 °F 27.7 °F 23.0 °F 65% 30.27 in 6.2 mi SSE 6.9 mph - N/A   Partly Cloudy
2:25 PM 35.6 °F 29.9 °F 23.0 °F 60% 30.27 in 6.2 mi SSE 6.9 mph - N/A   Partly Cloudy
2:55 PM 33.8 °F 27.0 °F 24.8 °F 70% 30.27 in 6.2 mi SSE 8.1 mph - N/A   Partly Cloudy
3:25 PM 33.8 °F 26.4 °F 24.8 °F 70% 30.27 in 6.2 mi SSE 9.2 mph - N/A   Partly Cloudy
3:55 PM 33.8 °F 27.0 °F 24.8 °F 70% 30.27 in 6.2 mi SSE 8.1 mph - N/A   Partly Cloudy
4:00 PM 34 °F - 24 °F 57% 30.27 in 14 mi SE 8.9 mph - -   Scattered Clouds
4:25 PM 33.8 °F 27.0 °F 24.8 °F 70% 30.27 in 6.2 mi SSE 8.1 mph - N/A   Scattered Clouds
4:55 PM 33.8 °F 27.0 °F 24.8 °F 70% 30.27 in 6.2 mi SSE 8.1 mph - N/A   Scattered Clouds
5:25 PM 32.0 °F 25.6 °F 24.8 °F 75% 30.27 in 6.2 mi SSE 6.9 mph - N/A   Partly Cloudy
5:55 PM 30.2 °F 23.4 °F 24.8 °F 80% 30.27 in 6.2 mi SE 6.9 mph - N/A   Partly Cloudy
6:25 PM 30.2 °F 23.4 °F 24.8 °F 80% 30.27 in 6.2 mi SE 6.9 mph - N/A   Partly Cloudy
6:55 PM 30.2 °F 21.9 °F 24.8 °F 80% 30.27 in 6.2 mi SE 9.2 mph - N/A   Partly Cloudy
7:00 PM 31 °F - 24 °F 68% 30.29 in 9 mi SE 8.9 mph - -   Partly Cloudy
7:25 PM 30.2 °F 23.4 °F 24.8 °F 80% 30.27 in 6.2 mi SE 6.9 mph - N/A   Partly Cloudy
7:55 PM 30.2 °F 23.4 °F 24.8 °F 80% 30.27 in - SE 6.9 mph - N/A   Clear
8:25 PM 30.2 °F 22.6 °F 24.8 °F 80% 30.27 in - SE 8.1 mph - N/A   Clear
8:55 PM 30.2 °F 21.3 °F 24.8 °F 80% 30.24 in - SE 10.4 mph - N/A   Clear
9:55 PM 30.2 °F 21.3 °F 23.0 °F 75% 30.24 in 5.0 mi SSE 10.4 mph - N/A   Unknown
10:00 PM 30 °F - 24 °F 70% 30.26 in 5 mi SSE 11.2 mph - -   Light Haze
10:25 PM 30.2 °F 20.8 °F 24.8 °F 80% 30.24 in 5.0 mi SSE 11.5 mph - N/A   Unknown
10:55 PM 30.2 °F 20.8 °F 24.8 °F 80% 30.24 in 4.3 mi SSE 11.5 mph - N/A   Unknown
11:25 PM 30.2 °F 20.8 °F 24.8 °F 80% 30.21 in 4.3 mi SSE 11.5 mph - N/A   Unknown
11:55 PM 30.2 °F 20.2 °F 24.8 °F 80% 30.21 in 3.7 mi SSE 12.7 mph - N/A   Unknown